Погода в Столбовом

Россия / Республика Крым     45°21′48″N   33°29′42″E
темп.,
°C
ветер,
м/с
пор.,
м/с
влажн.,
%
обл.,
%
осадки,
мм/ч
давл.,
гПа
погр.,
м
27 февраля, сб
сб2700:00+8юз711900 0.0 1023347
03:00+8юз711900 0.0 1021350
06:00+8юз610900 0.0 1019306
09:00+9юз710860 0.0 1019455
12:00+10юз79770 0.0 1018564
15:00+11зюз67780 0.0 1017543
18:00+10сз357738 0.0 1017517
21:00+8с7117669 0.0 1018736
28 февраля, вс
вс2800:00+5ссз6876100 0.0 1019716
03:00+5ссз5869100 0.0 10201047
06:00+4ссз5783100 0.1 1020607
09:00+3ссз6887100 0.5 1021661
12:00+5ссз676998 0.1 1022902
15:00+6ссз666297 0.3 10221129
18:00+5сз6872100 0.1 1022842
21:00+3сз487995 0.2 1024425
1 марта, пн
пн100:00+2сз357890 0.0 1025241
03:00+2сз238195 0.0 1025177
06:00+1ссз2391100 0.1 1025193
09:00+3ссз237397 0.1 1026501
12:00+5с125789 0.0 10271111
15:00+6ссз235494 0.1 10271117
18:00+5с4458100 0.0 10271046
21:00+4с357397 0.1 1029446
2 марта, вт
вт200:00+4с247098 0.0 1030266
03:00+3с236997 0.1 1030194
06:00+1с23814 0.0 103084
09:00+2ссз227619 0.0 1030165
12:00+5з456328 0.0 1030954
15:00+6з676550 0.0 1028914
18:00+4з797740 0.0 1026674
21:00+5зюз6118556 0.0 1026457
3 марта, ср
ср300:00+5зсз4108772 0.0 1025291
03:00+4ссз348939 0.0 1025101
06:00+3сз23890 0.0 102549
09:00+5сз468416 0.0 1026309
12:00+9ссз56630 0.0 1027875
15:00+10ссз56520 0.0 10271015
18:00+8сз45590 0.0 1027594
21:00+5сз34780 0.0 1028107